Location: ??
(35.5653°N, 139.6194°E)
Time: 21:50:18
(UTC+00:00)

Cosmos 2219 Rocket - Pass Details

Date: 20 November 2019
Orbit: 827 x 847 km, 71.0° (Epoch: 12 December)

Event Time Altitude Azimuth Distance (km) Brightness Sun altitude
Rises 20:08:52 0° 350° (N) 3,403 5.1 -14.9°
Reaches altitude 10° 20:11:42 10° 2° (N) 2,468 4.5 -14.4°
Maximum altitude 20:16:29 28° 60° (ENE) 1,555 4.1 -13.4°
Drops below altitude 10° 20:21:15 10° 118° (ESE) 2,464 6.0 -12.5°
Sets 20:24:03 0° 130° (SE) 3,397 6.7 -12.0°
